Flag for U.S.A. Weather past 2 weeks in Rockford, Illinois, U.S.A.

Now
38 °F

Light rain. Fog.


Feels Like: 30 °F
Forecast: 33 / 42 °F
Wind: 13 mph from Southeast

Location: Greater Rockford Airport

Current Time: Dec 22, 2014 at 5:39:15 PM

Latest Report: Dec 22, 2014 at 4:54 PM


Visibility: 1 mi

Pressure: 29.67 "Hg

Humidity: 90%

Dew point: 35 °F

Location of RockfordLocation

Historic Weather in Rockford — Graph

°F

Rockford temperature yesterday

Maximum temperature yesterday: 37 °F (at 12:54 PM)
Minimum temperature yesterday: 32 °F (at 12:54 AM)
Average temperature yesterday: 35 °F

Past Weeks' High & Low Weather Summary

 TemperatureHumidityPressure
High47 °F (Dec 14, 1:54 PM)97% (Dec 8, 1:54 PM)30.47 "Hg (Dec 8, 1:54 PM)
Low18 °F (Dec 18, 6:54 AM)61% (Dec 7, 3:54 PM)29.66 "Hg (Dec 16, 12:54 AM)
Average33 °F83%30.19 "Hg
* Reported Dec 7 3:54 PM — Dec 22 3:54 PM, Rockford, Weather by CustomWeather, © 2014

Note: Actual official high and low records may vary slightly from our data, if they occured in-between our weather recording intervals... More about our weather records

Advertising

Rockford weather history for previous 24 hours

 ConditionsComfort  
Time TempWeatherWind HumidityBarometerVisibility
3:54 PM
Dec 22
37 °FLight rain. Fog.12 mph89%29.67 "Hg2 mi
2:54 PM36 °FLight rain. Fog.15 mph92%29.68 "Hg2 mi
1:54 PM35 °FLight rain. Fog.13 mph88%29.71 "Hg2 mi
12:54 PM35 °FLight rain. Fog.12 mph88%29.75 "Hg2 mi
11:54 AM35 °FSleet. Fog.9 mph85%29.80 "Hg4 mi
11:00 AM35 °FLight snow. Mostly cloudy.10 mph82%29.83 "Hg3 mi
9:54 AM34 °FOvercast.14 mph82%29.87 "Hg5 mi
8:54 AM33 °FFog.10 mph85%29.88 "Hg5 mi
7:54 AM33 °FFog.10 mph85%29.90 "Hg4 mi
6:54 AM33 °FFog.10 mph85%29.92 "Hg5 mi
5:54 AM33 °FDrizzle. Fog.14 mph85%29.93 "Hg4 mi
4:54 AM33 °FLight snow. Fog.12 mph85%29.94 "Hg4 mi
4:04 AM33 °FLight snow. Fog.10 mph88%29.93 "Hg4 mi
3:54 AM33 °FDrizzle. Fog.9 mph88%29.95 "Hg4 mi
2:54 AM33 °FLight rain. Fog.12 mph88%29.97 "Hg3 mi
1:54 AM33 °FLight rain. Fog.13 mph88%29.98 "Hg4 mi
12:54 AM34 °FLight rain. Overcast.13 mph82%29.98 "Hg8 mi
11:54 PM
Dec 21
35 °FOvercast.14 mph78%29.99 "Hg8 mi
10:54 PM35 °FOvercast.9 mph78%30.02 "Hg8 mi
9:54 PM36 °FMostly cloudy.12 mph75%30.03 "Hg8 mi
8:54 PM35 °FOvercast.14 mph78%30.03 "Hg8 mi
7:54 PM35 °FOvercast.14 mph78%30.04 "Hg8 mi
6:54 PM36 °FOvercast.16 mph75%30.05 "Hg8 mi
5:54 PM36 °FOvercast.16 mph79%30.07 "Hg8 mi
Weather by CustomWeather, © 2014

See weather overviewHow to use our weather pages